This is the latest recevied weather packets stored in our database for station/object KL7LK-13. If no packets are shown the sender has not sent any weather packets the latest 10 day(s).
| Time | Temp. | Humidity | Pressure | Rain* | Wind** | Luminosity | Snow |
|---|---|---|---|---|---|---|---|
| 1777923767 | 10.56° C | 62% | 1035 hPa | - | - | 506 W/m² | - |
| 1777921411 | 9.44° C | 64% | 1035.5 hPa | - | - | 269 W/m² | - |
| 1777917196 | 8.33° C | 60% | 1036.3 hPa | - | - | 202 W/m² | - |
| 1777916576 | 8.33° C | 60% | 1036.4 hPa | - | - | 151 W/m² | - |
| 1777915957 | 8.33° C | 59% | 1036.4 hPa | - | - | 147 W/m² | - |
| 1777914717 | 7.78° C | 60% | 1036.5 hPa | - | - | 128 W/m² | - |
| 1777912979 | 7.78° C | 61% | 1036.7 hPa | - | - | 105 W/m² | - |
| 1777910623 | 6.67° C | 62% | 1036.9 hPa | - | - | 98 W/m² | - |
| 1777898478 | 2.78° C | 77% | 1036.9 hPa | - | - | 0 W/m² | - |
| 1777894883 | 3.33° C | 75% | 1037 hPa | - | - | 0 W/m² | - |
| 1777887073 | 3.89° C | 74% | 1037.6 hPa | - | - | 0 W/m² | - |
| 1777886577 | 3.89° C | 73% | 1037.7 hPa | - | - | 0 W/m² | - |
| 1777884099 | 4.44° C | 71% | 1037.9 hPa | - | - | 0 W/m² | - |
| 1777881146 | 5° C | 71% | 1038 hPa | - | - | 0 W/m² | - |
| 1777880506 | 5° C | 70% | 1038 hPa | - | - | 0 W/m² | - |
| 1777879927 | 5.56° C | 69% | 1038.1 hPa | - | - | 0 W/m² | - |
| 1777878150 | 5.56° C | 68% | 1038.3 hPa | - | - | 0 W/m² | - |
| 1777873315 | 6.67° C | 65% | 1038.5 hPa | - | - | 12 W/m² | - |
| 1777867364 | 10° C | 51% | 1038.6 hPa | - | - | 46 W/m² | - |
| 1777866124 | 10° C | 49% | 1038.7 hPa | - | - | 63 W/m² | - |
| 1777864905 | 10.56° C | 49% | 1038.8 hPa | - | - | 76 W/m² | - |
| 1777861894 | 10.56° C | 47% | 1039 hPa | - | - | 108 W/m² | - |
| 1777859537 | 11.11° C | 47% | 1039.1 hPa | - | - | 135 W/m² | - |
| 1777855321 | 11.67° C | 45% | 1039.5 hPa | - | - | 253 W/m² | - |
| 1777851725 | 10.56° C | 50% | 1039.8 hPa | - | - | 177 W/m² | - |
* Rain since midnight (hover to see other rain measurements)
** Current wind speed in m/s (hover to see current wind gust speed)